Regional Weather Roundup
Issued by NWS

Home | Current Version | Previous Version | Graphics & Text | Print | Product List | Glossary On
Versions: 1 2 3 4 5 6 7 8 9 10 11 12 13 14 15 16 17 18 19 20 21 22 23 24 25 26 27 28 29 30 31 32 33 34 35 36 37 38 39 40 41 42 43 44 45 46 47 48 49 50
000
ASUS45 KABQ 201701
RWRNM
WEATHER ROUNDUP FOR NEW MEXICO
NATIONAL WEATHER SERVICE ALBUQUERQUE NM
1100 AM MDT WED AUG 20 2014

NOTE: "FAIR" MEANS FEW OR NO CLOUDS BELOW 12,000 FEET AGL WITH NO
       SIGNIFICANT WEATHER OR OBSTRUCTIONS TO VISION.

      THIS PRODUCT IS RELEASED AS TWO VERSIONS.  ONE VERSION NEAR
      THE TOP OF THE HOUR CONTAINING PRELIMINARY DATA FROM ALBUQUERQUE
      AND OTHER STATIONS.  A FINAL VERSION WITH ADDITIONAL DATA IS
      ISSUED ABOUT 10 MINUTES AFTER THE HOUR.

NMZ501-503-504-510>518-201800-
NORTHWEST PLATEAU/NORTHCENTRAL MOUNTAINS

CITY           SKY/WX    TMP DP  RH WIND       PRES   REMARKS
FARMINGTON     MOSUNNY   73  52  47 VRB5G16   30.12R
LOS ALAMOS     PTSUNNY   67  48  50 S5        30.21S
SANTA FE       PTSUNNY   71  51  49 CALM      30.15R
TAOS           PTSUNNY   70  48  46 S8        30.20S
ANGEL FIRE     FAIR      62  48  60 W9        30.26F

$$
NMZ402-403-502-505>509-201800-
WESTCENTRAL MOUNTAINS/SOUTHWEST MOUNTAINS

CITY           SKY/WX    TMP DP  RH WIND       PRES   REMARKS
GALLUP         SUNNY     70  50  49 W9        30.21F
SILVER CITY    MOSUNNY   73  52  46 MISG      30.16S

$$
NMZ407-409-411-412-201800-
SOUTHERN DESERTS

CITY           SKY/WX    TMP DP  RH WIND       PRES   REMARKS
LORDSBURG      FAIR      73  59  60 NW12G17   30.12S
DEMING         MOSUNNY   80  52  37 W14       30.08S
LAS CRUCES     SUNNY     79  55  43 W5        30.08S
HOLLOMAN AFB   MOSUNNY   78  57  48 SE7       30.03S
ALAMOGORDO     MOSUNNY   77  55  47 S6        30.05S
T OR C         SUNNY     80  51  36 N7        30.09R

$$
NMZ519>523-201800-
CENTRAL VALLEYS/CENTRAL HIGHLANDS

CITY           SKY/WX    TMP DP  RH WIND       PRES   REMARKS
ALBUQUERQUE    MOSUNNY   76  52  43 VRB7      30.12S
DOUBLE EAGLE   PTSUNNY   73  52  46 VRB7      30.15S
CLINES CORNERS MOSUNNY   71  51  49 W17       30.17S
BELEN          FAIR      76  51  42 NW9       30.11S
SOCORRO        FAIR      81  47  30 N13G21    30.09R

$$
NMZ524>526-539-540-201800-
SOUTHCENTRAL MOUNTAINS

CITY           SKY/WX    TMP DP  RH WIND       PRES   REMARKS
RUIDOSO        NOT AVBL

$$
NMZ527>531-201800-
NORTHEAST HIGHLANDS/NORTHEAST PLAINS

CITY           SKY/WX    TMP DP  RH WIND       PRES   REMARKS
LAS VEGAS      PTSUNNY   75  48  38 W9        30.13S
RATON          MOSUNNY   77  49  37 S9        30.06S
CLAYTON        SUNNY     88  47  24 SW17G24   29.97S

$$
NMZ532>537-201800-
EASTCENTRAL PLAINS

CITY           SKY/WX    TMP DP  RH WIND       PRES   REMARKS
TUCUMCARI      SUNNY     92  52  25 SW13      29.93S
CANNON AFB     NOT AVBL
CLOVIS AIRPORT   N/A     86  59  39 S10       30.01S

$$
NMZ028-029-538-201800-
SOUTHEAST PLAINS

CITY           SKY/WX    TMP DP  RH WIND       PRES   REMARKS
ROSWELL        MOSUNNY   85  59  41 SE6       29.96S
ARTESIA        SUNNY     86  55  35 SW8       29.96S
CARLSBAD       PTSUNNY   87  56  34 CALM      29.93F
HOBBS          SUNNY     86  57  37 S17       29.99S


$$


USA.gov is the U.S. government's official web portal to all federal, state and local government web resources and services.